EW5833 Weather Reports


time (UTC)temp
C
wind
direction
speed
KPH
gust
KPH
rain 1hr
cm
rain 24hr
cm
rain mn
cm
humidity
%
barometer
mb
20260510190908 15 225 4.8 14.5 0.00 0.00 0.00 35 1017.3
20260510185906 14 314 4.8 11.3 0.00 0.00 0.00 37 1017.2
20260510185343 14 278 3.2 9.7 0.00 0.00 0.00 36 1017.2
20260510185118 14 278 3.2 9.7 0.00 0.00 0.00 36 1017.2
20260510183907 15 255 4.8 14.5 0.00 0.00 0.00 34 1017.2
20260510183357 13 358 4.8 16.1 0.00 0.23 0.00 34 1017.0
20260510183120 13 358 4.8 16.1 0.00 0.23 0.00 34 1017.0
20260510182343 13 339 6.4 17.7 0.00 0.79 0.00 35 1016.8
20260510182120 13 339 6.4 17.7 0.00 0.79 0.00 35 1016.8
20260510180904 13 303 4.8 14.5 0.00 0.79 0.00 36 1016.8
20260510175907 13 267 4.8 16.1 0.00 0.79 0.00 38 1016.8
20260510175349 12 89 6.4 16.1 0.00 0.79 0.00 37 1016.7
20260510175202 13 7 6.4 17.7 0.00 0.79 0.00 33 1016.8
20260510174906 12 89 6.4 16.1 0.00 0.79 0.00 37 1016.7
20260510174738 13 317 4.8 17.7 0.00 0.79 0.00 34 1016.7
20260510174733 13 7 6.4 17.7 0.00 0.79 0.00 33 1016.8
20260510173730 13 317 4.8 17.7 0.00 0.79 0.00 34 1016.7
20260510172343 13 320 6.4 19.3 0.00 0.79 0.00 35 1016.8
20260510171904 13 320 6.4 19.3 0.00 0.79 0.00 35 1016.8
20260510170900 13 336 6.4 20.9 0.00 0.79 0.00 39 1016.9
20260510170334 12 330 6.4 14.5 0.00 0.79 0.00 36 1017.0
20260510165857 12 330 6.4 14.5 0.00 0.79 0.00 36 1017.0
20260510164909 12 323 6.4 16.1 0.00 0.79 0.00 36 1016.9
20260510164857 12 50 6.4 19.3 0.00 0.79 0.00 36 1016.9
20260510164658 12 316 6.4 16.1 0.00 0.79 0.00 40 1016.8
20260510164258 12 316 6.4 16.1 0.00 0.79 0.00 40 1016.8
20260510163109 12 323 6.4 16.1 0.00 0.79 0.00 36 1016.9
20260510161855 12 174 4.8 12.9 0.00 0.79 0.00 37 1016.9
20260510161019 12 325 6.4 17.7 0.00 0.81 0.00 40 1016.8
20260510160856 12 252 6.4 14.5 0.00 0.79 0.00 38 1016.8
20260510160433 12 325 6.4 17.7 0.00 0.81 0.00 40 1016.8
20260510155338 12 311 6.4 19.3 0.00 0.81 0.00 37 1016.8
20260510154857 12 311 6.4 19.3 0.00 0.81 0.00 37 1016.8
20260510153856 12 268 3.2 12.9 0.00 0.81 0.00 40 1016.6
20260510152855 11 283 6.4 14.5 0.00 0.81 0.00 41 1016.6
20260510151853 11 76 6.4 16.1 0.00 0.81 0.00 39 1016.5
20260510151331 11 227 6.4 17.7 0.00 0.81 0.00 42 1016.5
20260510151105 11 227 6.4 17.7 0.00 0.81 0.00 42 1016.5
20260510150542 11 337 6.4 14.5 0.00 0.81 0.00 41 1016.4
20260510150430 11 337 6.4 14.5 0.00 0.81 0.00 41 1016.4
20260510144851 11 326 6.4 16.1 0.00 0.81 0.00 41 1016.2
20260510143851 10 289 6.4 16.1 0.00 0.81 0.00 44 1016.1
20260510143542 10 328 4.8 14.5 0.00 0.81 0.00 44 1016.1
20260510143430 10 328 4.8 14.5 0.00 0.81 0.00 44 1016.1
20260510142822 10 0 4.8 14.5 0.00 0.81 0.00 44 1016.0
20260510141850 10 0 4.8 14.5 0.00 0.81 0.00 44 1016.0
20260510140850 10 328 6.4 12.9 0.00 0.81 0.00 44 1015.9
20260510140327 10 52 4.8 11.3 0.00 0.84 0.00 45 1015.8
20260510140100 10 52 4.8 11.3 0.00 0.84 0.00 45 1015.8
20260510135332 9 29 4.8 16.1 0.00 0.84 0.00 46 1015.8
20260510135100 9 29 4.8 16.1 0.00 0.84 0.00 46 1015.8
20260510133848 10 285 3.2 12.9 0.00 0.84 0.00 46 1015.8
20260510133330 9 0 3.2 11.3 0.00 0.84 0.00 49 1015.7
20260510132847 9 0 3.2 11.3 0.00 0.84 0.00 49 1015.7
20260510131846 8 59 3.2 9.7 0.00 0.84 0.00 50 1015.6
20260510131338 8 307 3.2 11.3 0.00 0.84 0.00 49 1015.5
20260510130847 8 307 3.2 11.3 0.00 0.84 0.00 49 1015.5
20260510125846 8 315 4.8 16.1 0.00 0.84 0.00 54 1015.4
20260510125326 8 333 4.8 14.5 0.00 0.84 0.00 55 1015.5
20260510125058 8 333 4.8 14.5 0.00 0.84 0.00 55 1015.5
20260510123846 8 338 3.2 12.9 0.00 0.84 0.00 56 1015.2
20260510123331 7 291 3.2 9.7 0.00 0.84 0.00 58 1015.1
20260510122846 7 291 3.2 9.7 0.00 0.84 0.00 58 1015.1
20260510121844 7 321 4.8 11.3 0.00 0.84 0.00 60 1015.0
20260510121338 7 345 4.8 11.3 0.00 0.84 0.00 62 1014.9
20260510120844 7 345 4.8 11.3 0.00 0.84 0.00 62 1014.9
20260510120327 7 300 4.8 12.9 0.00 0.84 0.00 62 1014.7
20260510115843 7 300 4.8 12.9 0.00 0.84 0.00 62 1014.7
20260510115803 6 315 1.6 4.8 0.00 0.84 0.00 64 1014.7
20260510115055 6 315 1.6 4.8 0.00 0.84 0.00 64 1014.7
20260510113844 6 332 3.2 8.0 0.00 0.84 0.00 66 1014.7
20260510113533 5 0 1.6 4.8 0.00 0.84 0.00 67 1014.6
20260510113421 5 0 1.6 4.8 0.00 0.84 0.00 67 1014.6
20260510112541 4 301 0.0 3.2 0.00 0.84 0.00 69 1014.5
20260510112356 4 301 0.0 3.2 0.00 0.84 0.00 69 1014.5
20260510110845 3 246 1.6 4.8 0.00 0.84 0.00 73 1014.4
20260510105845 3 313 0.0 4.8 0.00 0.84 0.00 75 1014.1
20260510105026 3 324 0.0 3.2 0.00 0.84 0.00 75 1014.0
20260510104846 3 0 1.6 3.2 0.00 0.84 0.00 75 1014.0
20260510104339 3 324 0.0 3.2 0.00 0.84 0.00 75 1014.0
20260510102845 3 320 0.0 3.2 0.00 0.84 0.00 75 1013.9
20260510101846 3 0 1.6 4.8 0.00 0.84 0.00 76 1013.9
20260510101822 3 0 1.6 6.4 0.00 0.84 0.00 76 1013.7
20260510101057 3 0 1.6 6.4 0.00 0.84 0.00 76 1013.7
20260510100317 3 0 0.0 3.2 0.00 0.84 0.00 77 1013.7
20260510100049 3 0 0.0 3.2 0.00 0.84 0.00 77 1013.7
20260510094839 3 0 0.0 0.0 0.00 0.84 0.00 77 1013.4
20260510093839 3 0 0.0 4.8 0.00 0.84 0.00 77 1013.3
20260510092844 3 287 0.0 3.2 0.00 0.84 0.00 76 1013.1
20260510091840 3 0 0.0 0.0 0.00 0.84 0.00 76 1013.0
20260510091327 3 0 0.0 0.0 0.00 0.84 0.00 77 1012.8
20260510090840 3 0 0.0 0.0 0.00 0.84 0.00 77 1012.8
20260510085837 4 0 0.0 0.0 0.00 0.84 0.00 76 1012.6
20260510084836 4 0 0.0 3.2 0.00 0.84 0.00 74 1012.5
20260510083836 4 0 1.6 4.8 0.00 0.84 0.00 73 1012.4
20260510083316 3 292 0.0 6.4 0.00 0.84 0.00 78 1012.2
20260510083048 3 292 0.0 6.4 0.00 0.84 0.00 78 1012.2
20260510082323 3 0 0.0 0.0 0.00 0.84 0.00 81 1012.0
20260510082128 4 0 0.0 0.0 0.00 0.84 0.00 79 1011.9
20260510082048 3 0 0.0 0.0 0.00 0.84 0.00 81 1012.0
20260510081659 4 0 0.0 0.0 0.00 0.84 0.00 79 1011.9
20260510075835 4 0 0.0 1.6 0.00 0.84 0.00 77 1011.7
20260510075318 5 0 0.0 1.6 0.00 0.84 0.00 75 1011.6
20260510075045 5 0 0.0 1.6 0.00 0.84 0.00 75 1011.6
20260510073834 5 0 0.0 4.8 0.00 0.84 0.00 73 1011.4
20260510072834 6 0 0.0 3.2 0.00 0.84 0.00 68 1011.3
20260510072320 6 0 0.0 3.2 0.00 0.84 0.00 68 1011.2
20260510071835 6 0 0.0 3.2 0.00 0.84 0.00 68 1011.2
20260510071317 6 0 0.0 3.2 0.00 0.84 0.00 68 1011.2
20260510070834 6 0 0.0 3.2 0.00 0.84 0.00 68 1011.2
20260510065832 6 0 0.0 3.2 0.00 0.84 0.00 65 1011.0
20260510064832 7 78 1.6 6.4 0.00 0.84 0.00 64 1010.9
20260510064310 7 288 0.0 6.4 0.00 0.84 0.00 64 1010.7
20260510064045 7 288 0.0 6.4 0.00 0.84 0.00 64 1010.7
20260510062832 7 0 1.6 6.4 0.00 0.84 0.00 64 1010.6
20260510062312 7 329 1.6 6.4 0.00 0.84 0.00 63 1010.5
20260510062041 7 329 1.6 6.4 0.00 0.84 0.00 63 1010.5
20260510060830 8 315 3.2 8.0 0.00 0.84 0.00 62 1010.3
20260510055829 8 291 3.2 11.3 0.00 0.84 0.00 60 1010.2
20260510054830 8 323 6.4 12.9 0.00 0.84 0.00 59 1010.1
20260510053829 8 343 6.4 14.5 0.00 0.84 0.00 60 1009.9
20260510052829 8 55 3.2 19.3 0.00 0.84 0.00 61 1009.9
20260510051830 8 321 1.6 6.4 0.00 0.84 0.00 66 1009.7
20260510050829 7 0 0.0 3.2 0.00 0.84 0.00 67 1009.6
20260510045829 8 0 0.0 0.0 0.00 0.84 0.00 69 1009.5
20260510044831 8 0 0.0 3.2 0.00 0.84 0.00 63 1009.3
20260510043831 9 0 0.0 6.4 0.00 0.84 0.00 60 1009.2
20260510043319 9 356 1.6 6.4 0.00 0.84 0.00 60 1008.9
20260510042830 9 356 1.6 6.4 0.00 0.84 0.00 60 1008.9
20260510041830 10 0 1.6 6.4 0.00 0.84 0.00 60 1008.9
20260510040829 10 341 0.0 4.8 0.00 0.84 0.00 60 1008.8
20260510035935 10 345 1.6 6.4 0.00 0.84 0.84 58 1008.5
20260510035831 10 0 0.0 4.8 0.00 0.84 0.84 59 1008.7
20260510035337 11 349 1.6 8.0 0.00 0.84 0.84 57 1008.4
20260510035012 10 345 1.6 6.4 0.00 0.84 0.84 58 1008.5
20260510034042 11 349 1.6 8.0 0.00 0.84 0.84 57 1008.4
20260510032831 11 7 3.2 12.9 0.00 0.84 0.84 56 1008.3
20260510031831 11 311 3.2 9.7 0.00 0.84 0.84 57 1008.3
20260510030829 12 352 3.2 14.5 0.00 0.84 0.84 56 1008.0
20260510025829 12 354 3.2 12.9 0.00 0.84 0.84 56 1007.9
20260510024829 13 345 4.8 11.3 0.00 0.84 0.84 54 1007.8
20260510024307 13 0 6.4 20.9 0.00 0.84 0.84 50 1007.6
20260510024041 13 0 6.4 20.9 0.00 0.84 0.84 50 1007.6
20260510023518 13 296 6.4 14.5 0.00 0.84 0.84 49 1007.3
20260510023404 13 296 6.4 14.5 0.00 0.84 0.84 49 1007.3
20260510021829 13 315 6.4 17.7 0.00 0.84 0.84 48 1007.1
20260510020830 13 336 4.8 12.9 0.00 0.84 0.84 48 1006.9
20260510015829 14 265 6.4 14.5 0.00 0.84 0.84 47 1006.4
20260510014830 14 287 4.8 14.5 0.00 0.84 0.84 46 1006.3
20260510013828 15 318 9.7 17.7 0.00 0.84 0.84 45 1006.0
20260510012829 15 28 6.4 16.1 0.00 0.84 0.84 45 1005.5
20260510012309 15 338 4.8 16.1 0.00 0.84 0.84 47 1005.1
20260510012041 15 338 4.8 16.1 0.00 0.84 0.84 47 1005.1
20260510010830 15 310 1.6 14.5 0.00 0.84 0.84 49 1004.9
20260510005828 15 304 0.0 4.8 0.00 0.84 0.84 49 1004.8
20260510005312 15 258 0.0 6.4 0.00 0.81 0.81 47 1004.6
20260510004830 15 258 0.0 6.4 0.00 0.81 0.81 47 1004.6
20260510003831 15 226 0.0 6.4 0.00 0.81 0.81 48 1004.4
20260510003751 16 334 1.6 6.4 0.00 0.81 0.81 47 1004.3
20260510002830 16 334 1.6 6.4 0.00 0.81 0.81 47 1004.3
20260510001829 15 0 0.0 6.4 0.00 0.81 0.81 47 1004.1
20260510000829 16 0 1.6 9.7 0.00 0.81 0.81 47 1004.0
20260510000313 16 297 3.2 9.7 0.00 0.81 0.81 46 1003.9
20260509235831 16 297 3.2 9.7 0.00 0.81 0.81 46 1003.9
20260509235312 16 0 4.8 12.9 0.00 0.81 0.81 46 1003.7
20260509235042 16 0 4.8 12.9 0.00 0.81 0.81 46 1003.7
20260509233836 16 267 3.2 17.7 0.00 0.81 0.81 44 1003.7
20260509233240 17 296 4.8 16.1 0.00 0.81 0.81 43 1003.3
20260509233022 17 304 6.4 17.7 0.00 0.81 0.81 44 1003.3
20260509231830 17 296 4.8 16.1 0.00 0.81 0.81 43 1003.3
20260509231311 17 200 6.4 17.7 0.00 0.81 0.81 42 1003.2
20260509231042 17 200 6.4 17.7 0.00 0.81 0.81 42 1003.2
20260509230318 17 292 6.4 19.3 0.00 0.81 0.81 43 1003.1
20260509230040 17 292 6.4 19.3 0.00 0.81 0.81 43 1003.1
20260509225316 18 292 4.8 14.5 0.00 0.81 0.81 42 1002.8
20260509225040 18 292 4.8 14.5 0.00 0.81 0.81 42 1002.8
20260509224308 18 245 8.0 20.9 0.00 0.81 0.81 40 1002.6
20260509224042 18 245 8.0 20.9 0.00 0.81 0.81 40 1002.6
20260509222830 19 0 4.8 14.5 0.00 0.81 0.81 39 1002.4
20260509221829 19 333 6.4 24.1 0.00 0.81 0.81 39 1002.2
20260509220829 19 317 6.4 16.1 0.00 0.81 0.81 40 1002.0
20260509215830 18 127 6.4 20.9 0.00 0.81 0.81 42 1002.0
20260509215315 18 302 4.8 16.1 0.00 0.81 0.81 41 1001.9
20260509215041 18 302 4.8 16.1 0.00 0.81 0.81 41 1001.9
20260509214749 18 187 6.4 14.5 0.00 0.81 0.81 41 1001.8
20260509213828 18 187 6.4 14.5 0.00 0.81 0.81 41 1001.8
20260509212829 18 299 6.4 24.1 0.00 0.81 0.81 41 1001.8
20260509211829 19 291 6.4 24.1 0.00 0.81 0.81 42 1001.7
20260509210829 19 285 4.8 17.7 0.00 0.81 0.81 41 1001.6
20260509210316 18 230 6.4 17.7 0.00 0.81 0.81 46 1001.7
20260509205829 18 230 6.4 17.7 0.00 0.81 0.81 46 1001.7
20260509204829 18 250 6.4 14.5 0.00 0.81 0.81 44 1001.7
20260509203829 18 314 4.8 16.1 0.00 0.81 0.81 46 1001.7
20260509203304 18 306 4.8 16.1 0.00 0.81 0.81 45 1001.5
20260509202828 18 306 4.8 16.1 0.00 0.81 0.81 45 1001.5
20260509201829 18 259 6.4 20.9 0.00 0.81 0.81 45 1001.9
20260509200830 18 204 6.4 30.6 0.00 0.81 0.81 49 1002.4
20260509200317 17 208 8.0 20.9 0.00 0.81 0.81 49 1002.6
20260509195826 17 208 8.0 20.9 0.00 0.81 0.81 49 1002.6
20260509194819 17 290 6.4 20.9 0.00 0.81 0.81 54 1002.3
20260509193820 18 315 3.2 9.7 0.00 0.81 0.81 63 1002.4